Theta_e
355 356 355 357 358 355 351 346 348 349 352 351 349 348 347 346 345 343 342 339 338 334 333 334 333 332 331 330 330 331 331 333 335 334 336 338 340 342 343 344 344 346 346
357 356 359 360 357 355 351 345 348 351 351 350 349 347 345 343 342 341 339 336 333 332 331 331 330 328 327 326 327 328 328 328 330 331 330 331 333 335 338 338 340 340 342
357 358 361 358 355 353 347 347 349 351 350 349 347 345 343 340 338 334 331 330 329 327 324 325 324 322 322 323 323 324 323 323 324 325 326 326 328 331 332 331 335 336 337
358 359 353 350 348 347 343 348 350 350 347 345 342 339 336 331 329 327 326 324 322 320 320 321 320 319 319 319 320 322 322 322 322 323 323 323 324 325 325 327 328 328 330
350 352 348 346 344 343 347 351 348 344 343 338 334 330 328 326 320 322 319 319 320 320 319 318 316 316 316 314 315 317 319 320 321 320 321 322 322 322 323 324 326 326 326
348 349 345 344 339 336 347 346 341 338 335 332 329 328 324 318 309 310 318 319 319 319 318 316 315 315 316 315 313 313 312 314 316 318 319 320 321 320 321 321 322 324 328
347 345 345 343 338 342 343 338 337 334 330 328 326 324 320 316 309 312 315 316 316 316 315 315 313 312 314 315 315 314 314 312 312 313 315 316 316 317 317 319 320 320 324
348 348 346 343 343 342 339 336 335 331 328 325 322 320 317 311 308 311 313 315 315 316 316 315 314 313 309 313 315 315 314 313 312 312 312 312 312 312 313 315 317 320 320
343 343 346 345 343 341 338 337 333 329 325 322 320 319 315 310 307 311 314 315 316 316 315 313 314 313 309 310 315 314 313 312 313 312 312 312 311 311 311 313 315 315 316
342 343 344 346 343 341 340 335 331 327 322 319 318 317 314 312 308 311 315 315 316 315 316 316 313 310 309 308 313 315 314 313 313 313 314 314 314 314 313 314 314 314 314
342 343 344 345 343 340 336 332 329 324 320 318 316 316 316 315 310 309 313 316 315 315 315 315 315 314 309 308 307 314 312 310 313 312 312 313 312 312 312 313 314 313 314
347 346 345 344 342 338 334 329 327 323 320 317 317 316 316 315 312 310 310 310 311 315 316 316 316 313 310 309 309 311 310 309 314 313 312 312 313 312 312 312 312 313 314
345 343 342 341 339 336 331 329 326 323 318 316 316 315 315 315 315 310 310 310 310 311 314 314 313 313 313 314 314 313 312 314 315 314 313 312 312 312 312 312 312 312 311
344 343 340 338 335 333 329 327 324 321 316 315 315 315 315 315 315 315 315 315 316 315 315 316 314 315 316 316 316 317 316 316 315 314 313 312 312 312 312 313 312 312 311
342 339 336 333 331 328 325 324 321 317 315 314 315 315 316 316 316 315 314 314 314 314 312 313 317 318 318 317 317 317 316 316 315 314 313 312 312 312 312 313 312 312 312
338 336 332 329 326 324 322 320 316 315 312 313 314 316 316 315 314 313 313 313 312 312 311 316 318 319 319 317 317 316 315 314 313 312 312 312 313 312 312 312 312 312 312
336 332 327 325 322 319 318 317 314 310 309 311 312 312 312 313 313 313 313 312 312 312 313 318 319 319 318 317 316 314 313 311 310 311 311 312 312 312 311 312 312 311 311
331 325 323 322 320 319 319 318 315 312 314 314 312 312 313 313 313 312 312 312 315 315 315 318 318 318 316 315 313 310 309 309 309 309 310 311 311 311 310 312 311 310 311
326 323 323 321 320 319 318 316 317 318 318 317 317 317 314 314 313 313 315 316 319 319 319 319 318 316 314 310 308 308 307 307 307 308 309 309 309 309 310 310 310 310 310
324 324 323 322 320 318 318 319 317 316 316 317 317 317 317 316 317 318 317 318 318 319 319 318 315 312 308 307 306 306 306 306 307 308 308 308 308 307 307 309 310 311 310
322 321 319 318 318 318 317 316 317 318 318 318 318 317 316 316 317 317 319 319 320 320 318 314 310 307 305 305 304 304 305 306 307 307 307 307 307 306 307 309 310 309 309
320 317 316 316 317 317 317 317 318 319 318 318 318 318 317 317 318 318 319 320 319 317 313 309 306 305 304 302 301 302 303 303 302 302 302 303 304 306 307 307 308 309 309
317 317 316 317 317 318 317 319 319 319 319 318 318 318 318 318 319 319 319 318 317 313 308 305 304 303 302 301 301 300 300 300 298 297 297 297 299 302 304 306 308 308 309
317 317 318 318 318 319 319 320 319 318 318 318 318 318 319 319 319 319 319 317 314 309 306 304 303 302 301 301 301 300 299 297 295 295 296 296 297 300 303 306 308 308 308
317 318 318 319 319 319 320 319 319 319 319 319 319 319 319 319 319 319 318 315 310 307 305 303 303 302 302 301 301 300 298 294 294 294 294 295 297 300 304 307 308 308 308
318 317 318 319 320 320 320 319 318 318 318 319 319 319 319 320 320 318 317 312 308 306 304 304 303 303 303 302 301 298 295 295 295 294 294 294 299 302 304 305 307 308 309
Wind_Speed
16 15 15 14 13 15 14 12 10 7 5 2 1 1 4 5 5 6 6 6 8 8 8 9 10 11 12 11 11 11 11 11 10 16 16 14 16 15 15 15 15 12 11
16 17 15 13 12 12 13 13 10 7 4 1 1 1 1 3 4 5 6 6 7 8 8 9 10 13 13 12 12 11 11 11 13 15 16 16 14 14 14 17 15 15 13
18 14 14 14 16 13 12 12 10 7 4 3 3 2 2 3 4 5 5 5 6 7 9 9 10 11 11 12 12 12 12 13 12 14 16 15 16 15 16 16 16 16 15
20 22 18 17 20 15 13 11 10 8 7 5 5 5 4 4 4 5 5 6 6 6 6 7 9 12 12 14 12 12 13 14 13 13 13 13 13 14 16 17 18 18 18
18 18 21 24 20 21 10 10 14 8 8 7 7 5 5 3 2 3 4 5 6 7 8 8 10 12 12 12 12 12 13 13 12 14 13 14 14 17 17 19 21 21 20
13 17 20 25 21 26 16 15 10 11 10 9 7 6 5 3 4 7 7 6 8 9 10 11 11 15 12 13 14 12 14 13 13 14 12 15 14 16 16 17 18 19 12
14 21 19 25 26 19 16 13 12 12 10 9 7 6 7 6 9 12 11 10 10 11 11 11 11 13 13 12 13 13 12 11 13 13 15 15 18 19 20 20 17 18 18
27 25 25 22 19 20 17 15 13 11 9 8 8 7 8 10 15 17 12 9 9 10 9 10 10 11 15 11 11 11 12 13 12 14 13 15 14 15 15 18 21 21 23
21 25 22 22 22 22 17 16 14 12 10 10 10 11 11 11 12 14 8 7 7 7 6 8 7 8 13 14 11 13 14 15 13 16 14 13 15 11 16 15 16 19 19
21 19 20 19 19 19 17 15 15 14 12 12 13 13 12 10 10 10 6 4 4 3 3 5 8 9 11 12 9 11 14 16 13 14 13 12 12 11 10 13 16 17 17
22 23 22 21 21 21 19 17 17 14 14 14 15 13 11 8 7 5 5 4 4 5 7 7 8 14 17 14 13 10 13 15 14 15 15 14 13 13 13 14 13 15 18
24 25 23 22 19 19 19 17 16 15 15 14 13 12 10 8 8 4 2 0 4 6 9 10 12 18 22 19 17 15 21 16 15 18 17 16 15 16 17 17 15 13 15
30 26 22 19 17 17 18 17 16 15 15 15 13 10 9 7 6 5 6 6 9 10 11 16 21 21 20 18 17 20 17 15 17 19 19 17 17 17 18 18 18 17 18
24 23 21 20 19 17 15 15 13 13 13 13 11 9 8 8 7 6 6 7 9 13 15 17 21 19 17 16 16 16 13 17 18 19 20 20 19 19 19 18 18 20 22
24 21 20 18 16 16 12 10 8 8 9 11 10 8 8 8 5 5 7 10 11 14 21 18 18 17 17 18 19 19 19 18 20 21 21 20 20 20 19 18 19 20 20
24 21 18 18 17 14 13 11 8 9 14 11 8 7 5 7 6 9 12 15 16 19 17 16 17 18 19 21 21 22 21 22 22 22 22 20 19 20 19 20 19 20 21
21 20 19 16 15 14 11 12 12 13 16 14 12 11 13 13 13 14 15 16 17 18 10 16 18 20 21 22 22 23 23 23 22 20 20 20 20 20 19 20 19 21 23
18 20 19 16 15 13 11 9 10 14 12 11 15 16 16 14 13 13 12 16 18 12 14 17 19 21 21 22 23 23 23 22 21 20 20 20 20 19 19 19 19 21 23
19 17 15 15 13 11 11 11 12 6 6 10 11 11 12 11 9 10 12 13 15 16 16 16 19 20 22 23 22 21 20 21 20 20 19 19 19 19 18 19 20 22 23
15 16 16 14 13 13 12 10 8 8 10 10 10 7 6 9 12 13 10 12 15 15 15 17 19 20 21 20 20 20 20 20 20 19 19 19 19 18 19 20 21 21 23
15 16 14 13 14 13 11 9 9 7 7 6 7 7 5 8 13 14 14 12 13 13 14 16 18 18 18 18 18 18 19 19 19 19 19 19 19 19 19 19 21 22 25
17 16 14 14 13 11 10 10 9 7 7 7 7 5 4 8 12 8 11 11 10 10 13 14 16 16 15 15 16 17 18 18 18 19 20 20 19 19 19 20 21 22 24
15 15 15 13 11 8 8 8 8 8 8 8 6 8 6 9 9 11 11 9 9 11 12 13 14 14 14 14 14 14 16 17 18 20 21 21 21 20 20 21 21 22 24
14 16 15 12 10 10 8 6 6 5 6 9 6 8 7 7 10 9 7 7 8 11 12 12 12 12 14 14 14 13 14 16 20 19 20 21 20 20 20 20 20 21 25
14 15 13 11 10 11 8 8 4 3 4 5 8 8 8 9 10 8 7 7 8 11 12 12 11 12 13 15 14 14 20 21 22 23 20 19 21 20 18 19 20 21 25
12 12 10 9 9 7 6 5 4 4 5 7 8 8 10 12 11 8 7 7 8 10 11 10 11 12 14 13 12 21 21 22 24 24 24 20 16 17 17 19 20 20 24
Wind_Direction
175 178 177 177 178 169 167 168 171 174 176 187 202 317 333 333 335 331 338 350 351 357 6 6 1 355 351 349 343 343 336 341 318 317 314 319 323 320 321 320 315 309 307
162 161 172 167 170 180 176 166 167 179 189 193 339 37 32 2 355 354 345 356 1 2 3 2 359 356 350 348 343 345 334 327 320 312 320 317 318 319 316 321 311 306 305
157 159 165 160 161 171 179 171 169 179 173 149 146 116 55 27 14 14 20 22 19 5 358 3 7 2 360 355 350 346 343 333 319 318 311 318 321 320 324 315 313 310 298
161 168 169 160 161 155 179 180 173 172 154 144 120 98 76 56 45 36 22 13 25 28 31 30 26 17 7 357 353 353 349 340 340 331 324 328 332 342 328 325 321 313 311
175 168 156 160 169 144 175 173 181 154 142 132 109 93 76 59 59 62 45 59 58 46 36 42 38 32 22 15 7 359 354 349 350 343 338 338 342 339 336 333 323 321 310
164 159 153 156 160 143 193 173 139 137 141 134 121 120 114 87 74 108 94 78 71 68 59 50 44 35 30 29 27 19 18 8 356 344 336 334 329 327 328 325 318 322 317
152 154 155 160 159 166 173 154 149 147 139 121 117 104 94 85 97 97 79 78 74 68 59 53 48 33 27 26 21 22 21 18 10 344 338 334 325 327 322 318 317 312 302
147 146 151 153 153 161 164 155 150 140 136 126 104 99 99 103 105 98 96 94 87 78 69 63 58 41 32 32 18 18 13 8 0 359 346 337 332 326 322 312 307 301 303
145 142 149 154 154 154 153 155 143 141 138 123 127 128 119 120 119 114 115 99 85 74 67 58 47 34 26 28 14 10 4 360 353 349 345 348 349 341 344 335 335 320 322
155 156 158 156 154 153 151 150 149 153 145 139 134 128 135 134 132 136 126 109 72 47 15 354 337 356 353 357 347 348 352 351 343 345 348 348 346 345 344 341 335 329 327
150 151 160 162 158 149 150 158 153 149 140 144 138 144 148 155 157 143 115 53 20 341 338 342 335 313 321 317 318 305 318 327 327 333 330 334 343 347 348 343 338 329 321
148 150 153 152 151 152 153 155 153 145 144 150 153 160 167 178 181 190 169 320 318 314 311 320 317 302 303 303 302 288 307 314 316 329 324 321 323 327 333 330 326 317 307
141 144 146 146 148 152 153 156 156 157 159 164 171 178 177 190 209 235 263 284 295 300 296 302 312 316 315 313 308 307 311 302 311 318 320 315 315 314 314 315 315 319 319
139 139 141 146 149 154 156 162 165 171 168 170 180 189 189 198 210 221 250 268 299 303 310 309 303 300 294 298 293 307 291 306 306 302 302 307 307 306 308 313 313 316 321
142 144 143 143 147 148 150 161 175 171 175 182 194 195 202 209 216 244 282 294 303 301 303 312 310 319 324 321 321 319 315 312 309 305 302 300 301 302 305 310 314 310 309
142 142 147 149 152 152 155 159 171 169 186 192 192 205 222 257 262 277 290 297 305 305 301 300 307 317 321 322 322 321 318 316 314 313 305 300 297 303 304 309 306 312 310
141 142 146 153 153 152 155 165 167 186 188 198 221 233 246 256 272 287 292 298 300 297 277 295 303 316 323 319 318 319 317 317 314 306 307 302 300 301 302 305 308 312 311
139 146 153 153 155 159 169 161 164 179 197 212 242 250 257 267 280 286 292 297 295 277 271 303 319 320 319 320 320 319 318 316 313 311 309 305 301 303 304 302 308 307 312
145 153 151 152 156 160 158 169 201 177 211 233 238 223 242 253 267 288 286 284 293 305 311 318 322 320 321 321 321 319 316 312 312 307 305 306 307 306 302 302 302 298 300
150 152 149 152 160 165 178 183 186 206 226 228 229 243 191 215 252 263 275 305 301 307 316 321 323 323 322 321 320 318 316 318 316 315 313 311 307 307 303 299 300 307 310
150 157 161 165 168 168 172 183 203 223 221 214 222 214 254 287 291 300 304 309 313 317 322 321 321 321 320 322 321 321 322 323 324 323 320 315 308 301 298 298 303 307 314
160 164 168 165 166 170 183 199 207 221 232 243 250 186 221 271 276 308 312 315 327 319 322 321 321 322 322 324 324 324 325 325 326 326 321 314 310 305 303 303 307 309 314
164 167 173 168 176 163 194 208 222 242 253 261 271 291 279 303 320 314 325 318 318 322 323 323 321 320 323 324 323 323 321 323 324 319 315 312 309 308 308 304 307 311 314
172 175 173 168 186 194 202 225 234 251 289 292 277 287 305 311 308 323 301 309 315 320 321 319 316 317 319 321 319 318 323 320 319 318 312 307 305 307 306 305 307 313 314
173 175 174 183 184 208 173 220 196 229 267 280 281 286 288 306 307 303 300 302 312 320 318 315 314 316 318 317 316 315 315 322 323 324 321 307 301 302 300 304 310 315 311
184 186 192 198 200 197 205 231 254 285 303 313 307 303 304 305 314 301 293 297 310 316 311 312 316 319 322 325 319 317 326 331 329 326 322 313 304 303 305 310 312 316 314